Simultaneous Nadir Overpasses (SNOs) Predictions

Prediction of SNOs between METOP-C and LANDSAT-8 Satellite Orbit:

Table of predicted SNOs for the next 14.0 days since TLE Epoch: 9/9/2023
Index Date (METOP-C) Time (METOP-C) Lat,Lon (METOP-C) SZA (METOP-C ) Date (LANDSAT-8) Time (LANDSAT-8) Lat,Lon (LANDSAT-8) SZA (LANDSAT-8 ) Distance(km) Time Diff (sec)
1 09/09/2023 17:54:26 81.20, -47.54 78.23 09/09/2023 17:55:33 81.21, -47.55 78.26 0.46 67
2 09/09/2023 18:45:04 -81.22, 120.49 101.67 09/09/2023 18:44:59 -81.22, 120.39 101.69 1.68 5
3 09/12/2023 13:28:44 81.21, 19.13 79.35 09/12/2023 13:29:50 81.21, 18.93 79.36 3.29 66
4 09/12/2023 14:19:24 -81.21,-173.58 100.65 09/12/2023 14:19:17 -81.21,-173.48 100.64 1.75 7
5 09/15/2023 09:03:03 81.20, 85.34 80.42 09/15/2023 09:04:07 81.20, 85.21 80.43 2.31 64
6 09/15/2023 09:53:42 -81.22,-106.95 99.52 09/15/2023 09:53:33 -81.22,-106.81 99.51 2.44 9
7 09/18/2023 04:37:21 81.20, 151.48 81.49 09/18/2023 04:38:22 81.20, 151.65 81.54 2.88 61
8 09/18/2023 05:27:59 -81.22, -40.38 98.40 09/18/2023 05:27:48 -81.22, -40.34 98.40 0.68 11
9 09/21/2023 00:11:38 81.21,-141.68 82.66 09/21/2023 00:12:37 81.21,-141.74 82.68 1.05 59



Historial Predications of SNOs between METOP-C and LANDSAT-8
